Latest Weather Observations for Temora

IDN60801

Issued at 3:05 pm EST Friday 25 April 2014 (issued every 30 minutes, with the page automatically refreshed every 10 minutes)

About weather observations | Map of weather stations | Latest weather observations for NSW | Other Formats
Station Details ID: 073151 Name: TEMORA AIRPORT Lat: -34.43 Lon: 147.51 Height: 280.5 m
Data from the previous 72 hours. | See also: Recent months at Temora
Date/Time
EST
Temp
°C
App
Temp
°C
Dew
Point
Rel
Hum
%
Delta-T
°C
Wind Press
QNH
hPa
Press
MSL
hPa
Rain
since 9 am
mm
Dir
 
Spd
km/h
Gust
km/h
Spd
kts
Gust
kts
25/03:00pm 24.5 22.6 11.8 45 7.3 NNE 13 19 7 10 1015.7 1015.2 0.0
25/02:30pm 24.4 23.1 12.4 47 7.0 NE 11 22 6 12 1016.1 - 0.0
25/02:00pm 24.1 22.5 12.7 49 6.6 NNE 13 20 7 11 1016.4 - 0.0
25/01:30pm 23.5 21.1 11.5 47 6.8 NE 15 22 8 12 1016.8 - 0.0
25/01:00pm 23.1 20.0 11.5 48 6.6 NE 19 33 10 18 1017.1 - 0.0
25/12:30pm 23.0 20.2 11.4 48 6.6 NNE 17 30 9 16 1017.7 - 0.0
25/12:00pm 22.8 19.3 10.9 47 6.7 NE 20 35 11 19 1018.3 1017.9 0.0
25/11:30am 22.0 18.7 10.8 49 6.2 NE 19 32 10 17 1019.2 - 0.0
25/11:00am 20.7 17.6 11.6 56 5.1 NE 19 26 10 14 1019.8 - 0.0
25/10:30am 19.4 16.2 11.2 59 4.5 ENE 19 24 10 13 1020.2 - 0.0
25/10:00am 18.7 15.7 12.0 65 3.8 NE 19 24 10 13 1020.6 - 0.0
25/09:30am 17.4 14.1 11.7 69 3.2 E 20 26 11 14 1020.7 - 0.0
25/09:00am 16.1 14.2 11.7 75 2.4 E 13 19 7 10 1020.8 1020.4 0.0
25/08:30am 14.4 11.9 11.2 81 1.7 E 15 22 8 12 1020.7 - 0.0
25/08:00am 13.2 11.7 10.6 84 1.4 E 9 17 5 9 1020.5 - 0.0
25/07:30am 10.2 8.5 9.7 97 0.3 SE 9 13 5 7 1020.0 - 0.0
25/07:00am 6.1 3.7 5.4 95 0.3 SSE 7 11 4 6 1019.8 - 0.0
25/06:30am 6.1 3.2 4.6 90 0.7 SSE 9 13 5 7 1019.5 - 0.0
25/06:00am 4.9 2.3 4.2 95 0.3 S 7 11 4 6 1019.1 1018.6 0.0
25/05:30am 5.2 2.3 4.5 95 0.3 S 9 13 5 7 1019.0 - 0.0
25/05:00am 5.2 2.6 4.2 93 0.4 SSW 7 11 4 6 1019.0 - 0.0
25/04:30am 6.2 3.0 5.0 92 0.5 SSE 11 17 6 9 1018.6 - 0.0
25/04:00am 5.3 3.0 4.7 96 0.3 S 6 7 3 4 1018.5 - 0.0
25/03:30am 4.6 1.2 4.0 96 0.3 SSW 11 13 6 7 1018.4 - 0.0
25/03:00am 4.7 3.2 3.2 90 0.6 CALM 0 0 0 0 1018.5 1018.1 0.0
25/02:30am 6.1 3.9 5.4 95 0.3 ESE 6 7 3 4 1018.8 - 0.0
25/02:00am 4.8 1.4 3.9 94 0.4 SSW 11 13 6 7 1018.8 - 0.0
25/01:30am 5.3 2.3 4.3 93 0.4 S 9 11 5 6 1019.0 - 0.0
25/01:00am 5.9 4.7 4.7 92 0.5 CALM 0 0 0 0 1019.1 - 0.0
25/12:30am 6.6 5.1 4.9 89 0.8 NNE 2 7 1 4 1019.0 - 0.0
25/12:00am 6.3 4.4 5.1 92 0.5 SW 4 9 2 5 1018.9 1018.4 0.0
 
Date/Time
EST
Temp
°C
App
Temp
°C
Dew
Point
Rel
Hum
%
Delta-T
°C
Wind Press
QNH
hPa
Press
MSL
hPa
Rain
since 9 am
mm
Dir
 
Spd
km/h
Gust
km/h
Spd
kts
Gust
kts
24/11:30pm 6.4 5.3 4.9 90 0.7 CALM 0 0 0 0 1018.5 - 0.0
24/11:00pm 7.2 6.1 5.3 88 0.9 CALM 0 0 0 0 1018.8 - 0.0
24/10:30pm 7.4 6.3 5.2 86 1.0 CALM 0 4 0 2 1019.1 - 0.0
24/10:00pm 8.1 5.4 5.4 83 1.2 S 9 11 5 6 1019.0 - 0.0
24/09:30pm 8.2 5.5 5.7 84 1.1 S 9 11 5 6 1018.8 - 0.0
24/09:00pm 7.5 4.7 5.1 85 1.1 S 9 9 5 5 1018.5 1018.1 0.0
24/08:30pm 7.8 5.6 5.3 84 1.1 SSW 6 7 3 4 1018.4 - 0.0
24/08:00pm 9.2 7.1 5.8 79 1.6 SSW 6 7 3 4 1018.1 - 0.0
24/07:30pm 10.7 8.4 5.9 72 2.3 S 7 9 4 5 1017.8 - 0.0
24/07:00pm 12.2 11.2 5.6 64 3.1 CALM 0 0 0 0 1017.6 - 0.0
24/06:30pm 14.5 13.1 5.6 55 4.3 S 2 7 1 4 1017.2 - 0.0
24/06:00pm 15.8 13.1 5.7 51 4.9 S 9 11 5 6 1016.8 1016.3 0.0
24/05:30pm 17.1 14.0 5.7 47 5.6 S 11 15 6 8 1016.5 - 0.0
24/05:00pm 19.0 15.7 6.5 44 6.3 S 13 17 7 9 1016.2 - 0.0
24/04:30pm 20.3 17.0 6.3 40 7.1 S 13 19 7 10 1015.9 - 0.0
24/04:00pm 21.1 17.1 5.1 35 8.0 SSW 15 24 8 13 1015.8 - 0.0
24/03:30pm 21.7 17.1 3.9 31 8.7 SSW 17 24 9 13 1015.5 - 0.0
24/03:00pm 22.0 17.5 4.1 31 8.8 SSW 17 24 9 13 1015.5 1015.0 0.0
24/02:30pm 22.2 17.8 2.8 28 9.3 SSW 15 24 8 13 1015.4 - 0.0
24/02:00pm 22.3 18.0 5.3 33 8.6 SW 17 22 9 12 1015.4 - 0.0
24/01:30pm 22.2 18.7 8.7 42 7.3 SW 17 24 9 13 1015.5 - 0.0
24/01:00pm 21.6 17.6 8.1 42 7.2 SW 19 28 10 15 1015.7 - 0.0
24/12:30pm 21.9 18.5 10.7 49 6.2 WSW 19 30 10 16 1015.8 - 0.0
24/12:00pm 21.1 18.2 9.7 48 6.2 S 15 26 8 14 1016.1 1015.6 0.0
24/11:30am 20.9 17.4 10.1 50 5.9 SSW 19 32 10 17 1016.5 - 0.0
24/11:00am 20.6 17.6 10.7 53 5.5 SW 17 26 9 14 1016.7 - 0.0
24/10:30am 19.8 16.7 11.6 59 4.6 SSW 19 26 10 14 1016.7 - 0.0
24/10:00am 19.7 16.7 12.0 61 4.3 SW 19 24 10 13 1016.7 - 0.0
24/09:30am 18.4 17.6 11.7 65 3.7 W 7 13 4 7 1016.6 - 0.0
24/09:00am 16.6 15.9 10.0 65 3.5 NNW 4 7 2 4 1016.4 1015.9 0.0
24/08:30am 14.7 14.8 10.1 74 2.4 CALM 0 0 0 0 1016.2 - 0.0
24/08:00am 12.1 12.3 10.5 90 0.8 CALM 0 0 0 0 1015.6 - 0.0
24/07:30am 8.9 8.2 8.6 98 0.1 SW 2 7 1 4 1015.3 - 0.0
24/07:00am 7.3 6.5 6.7 96 0.3 CALM 0 0 0 0 1014.7 - 0.0
24/06:30am 7.4 5.3 6.7 95 0.3 S 7 9 4 5 1014.4 - 0.0
24/06:00am 7.4 5.3 6.7 95 0.3 S 7 9 4 5 1014.2 1013.8 0.0
24/05:30am 8.2 7.6 7.4 95 0.4 CALM 0 0 0 0 1013.9 - 0.0
24/05:00am 8.7 7.1 8.1 96 0.3 S 6 7 3 4 1013.7 - 0.0
24/04:30am 8.5 7.6 7.6 94 0.4 S 2 6 1 3 1013.6 - 0.0
24/04:00am 8.9 8.4 7.8 93 0.5 CALM 0 0 0 0 1013.7 - 0.0
24/03:30am 9.7 9.4 8.6 93 0.5 CALM 0 0 0 0 1013.7 - 0.0
24/03:00am 9.4 8.7 8.5 94 0.4 S 2 7 1 4 1013.9 1013.5 0.0
24/02:30am 9.5 9.2 8.6 94 0.4 CALM 0 0 0 0 1014.0 - 0.0
24/02:00am 10.0 9.8 8.9 93 0.5 CALM 0 0 0 0 1014.2 - 0.0
24/01:30am 9.6 8.9 8.4 92 0.6 S 2 6 1 3 1014.6 - 0.0
24/01:00am 9.9 8.3 8.8 93 0.5 S 7 9 4 5 1014.5 - 0.0
24/12:30am 10.0 9.7 8.8 92 0.6 CALM 0 0 0 0 1014.7 - 0.0
24/12:00am 10.4 10.1 8.8 90 0.8 CALM 0 0 0 0 1015.0 1014.5 0.0
 
Date/Time
EST
Temp
°C
App
Temp
°C
Dew
Point
Rel
Hum
%
Delta-T
°C
Wind Press
QNH
hPa
Press
MSL
hPa
Rain
since 9 am
mm
Dir
 
Spd
km/h
Gust
km/h
Spd
kts
Gust
kts
23/11:30pm 10.7 10.4 8.5 86 1.1 CALM 0 0 0 0 1015.3 - 0.0
23/11:00pm 11.7 11.6 9.3 85 1.2 CALM 0 0 0 0 1015.4 - 0.0
23/10:30pm 11.6 10.2 9.5 87 1.1 S 7 9 4 5 1015.5 - 0.0
23/10:00pm 11.5 11.2 8.7 83 1.4 CALM 0 0 0 0 1015.5 - 0.0
23/09:30pm 12.9 12.9 9.9 82 1.6 CALM 0 0 0 0 1015.5 - 0.0
23/09:00pm 13.3 13.3 9.9 80 1.8 CALM 0 0 0 0 1015.7 1015.2 0.0
23/08:30pm 13.7 12.9 9.7 77 2.1 NNE 4 7 2 4 1015.7 - 0.0
23/08:00pm 14.7 14.6 9.5 71 2.7 CALM 0 6 0 3 1015.5 - 0.0
23/07:30pm 17.2 15.8 8.9 58 4.4 S 6 7 3 4 1015.3 - 0.0
23/07:00pm 19.6 17.7 8.9 50 5.7 WSW 9 13 5 7 1015.3 - 0.0
23/06:30pm 21.4 19.3 8.3 43 7.0 NW 9 13 5 7 1015.0 - 0.0
23/06:00pm 20.4 19.0 9.0 48 6.1 W 6 7 3 4 1014.8 1014.4 0.0
23/05:30pm 22.4 20.3 8.1 40 7.6 W 9 11 5 6 1014.5 - 0.0
23/05:00pm 24.0 20.7 8.0 36 8.6 WNW 15 20 8 11 1014.4 - 0.0
23/04:30pm 24.2 19.9 7.8 35 8.8 NW 20 26 11 14 1014.4 - 0.0
23/04:00pm 24.3 21.3 7.9 35 8.8 NNW 13 20 7 11 1014.4 - 0.0
23/03:30pm 24.7 21.2 8.6 36 8.8 NNW 17 24 9 13 1014.6 - 0.0
23/03:00pm 24.4 20.7 8.0 35 8.8 NNW 17 22 9 12 1014.6 1014.2 0.0
23/02:30pm 24.6 20.6 8.1 35 8.9 N 19 26 10 14 1014.8 - 0.0
23/02:00pm 24.6 20.6 8.1 35 8.9 N 19 26 10 14 1015.1 - 0.0
23/01:30pm 24.4 21.3 8.8 37 8.5 N 15 26 8 14 1015.4 - 0.0
23/01:00pm 22.8 18.9 8.5 40 7.7 N 19 30 10 16 1015.9 - 0.0
23/12:30pm 23.5 19.5 8.4 38 8.1 N 19 24 10 13 1016.4 - 0.0
23/12:00pm 22.4 19.0 10.5 47 6.6 NNE 19 24 10 13 1017.0 1016.6 0.0
23/11:30am 21.2 18.2 9.4 47 6.4 NNE 15 19 8 10 1017.7 - 0.0
23/11:00am 20.2 18.2 10.0 52 5.6 NE 11 15 6 8 1018.2 - 0.0
23/10:30am 18.9 16.6 9.1 53 5.2 NE 11 15 6 8 1018.6 - 0.0
23/10:00am 18.1 15.9 9.5 57 4.6 ENE 11 19 6 10 1018.6 - 0.0
23/09:30am 16.1 14.3 9.5 65 3.5 E 9 11 5 6 1019.1 - 0.0
23/09:00am 15.4 13.7 9.7 69 3.0 ESE 9 11 5 6 1019.0 1018.5 0.0
23/08:30am 14.7 13.2 9.3 70 2.8 ENE 7 9 4 5 1019.0 - 0.0
23/08:00am 12.4 11.9 9.4 82 1.5 NE 2 7 1 4 1018.6 - 0.0
23/07:30am 9.8 9.3 7.7 87 1.0 CALM 0 0 0 0 1018.4 - 0.0
23/07:00am 10.7 9.2 8.3 85 1.2 ENE 6 7 3 4 1018.0 - 0.0
23/06:30am 9.3 7.3 7.3 87 1.0 NE 7 9 4 5 1017.8 - 0.0
23/06:00am 9.5 8.6 7.6 88 0.9 NE 2 9 1 5 1017.7 1017.3 0.0
23/05:30am 9.8 8.1 7.4 85 1.2 ENE 6 7 3 4 1017.4 - 0.0
23/05:00am 9.6 8.3 7.5 87 1.0 E 4 9 2 5 1017.5 - 0.0
23/04:30am 10.8 9.1 8.2 84 1.3 ENE 7 9 4 5 1017.3 - 0.0
23/04:00am 9.1 8.2 7.7 91 0.7 ENE 2 7 1 4 1017.1 - 0.0
23/03:30am 9.2 8.6 7.5 89 0.8 CALM 0 0 0 0 1017.0 - 0.0
23/03:00am 10.3 8.5 8.1 86 1.1 ENE 7 9 4 5 1016.9 1016.4 0.0
23/02:30am 9.6 7.7 7.5 87 1.0 ENE 7 9 4 5 1017.2 - 0.0
23/02:00am 9.2 8.6 7.5 89 0.8 CALM 0 2 0 1 1017.3 - 0.0
23/01:30am 9.1 8.0 6.9 86 1.0 ENE 2 6 1 3 1017.5 - 0.0
23/01:00am 9.9 9.4 7.7 86 1.1 CALM 0 0 0 0 1017.7 - 0.0
23/12:30am 10.1 9.6 8.0 87 1.0 CALM 0 0 0 0 1017.8 - 0.0
23/12:00am 10.0 9.4 7.3 83 1.3 CALM 0 0 0 0 1018.0 1017.6 0.0
 
Date/Time
EST
Temp
°C
App
Temp
°C
Dew
Point
Rel
Hum
%
Delta-T
°C
Wind Press
QNH
hPa
Press
MSL
hPa
Rain
since 9 am
mm
Dir
 
Spd
km/h
Gust
km/h
Spd
kts
Gust
kts
22/11:30pm 11.5 10.6 7.6 77 1.9 NE 2 7 1 4 1018.3 - 0.0
22/11:00pm 12.9 11.0 7.4 69 2.7 ENE 7 9 4 5 1018.5 - 0.0
22/10:30pm 14.2 12.0 7.9 66 3.2 ENE 9 13 5 7 1018.5 - 0.0
22/10:00pm 14.4 12.2 7.7 64 3.4 ENE 9 11 5 6 1018.5 - 0.0
22/09:30pm 15.0 12.0 7.8 62 3.6 ENE 13 17 7 9 1018.4 - 0.0
22/09:00pm 15.4 12.8 7.7 60 3.9 ENE 11 13 6 7 1018.3 1017.9 0.0
22/08:30pm 13.2 11.6 7.9 70 2.7 ENE 6 9 3 5 1018.3 - 0.0
22/08:00pm 13.8 11.8 6.9 63 3.4 NE 7 9 4 5 1018.2 - 0.0
22/07:30pm 16.5 13.8 7.4 55 4.6 NE 11 13 6 7 1018.0 - 0.0
22/07:00pm 16.7 14.1 7.6 55 4.6 NE 11 15 6 8 1017.9 - 0.0
22/06:30pm 17.5 15.3 7.8 53 5.0 NE 9 13 5 7 1017.8 - 0.0
22/06:00pm 18.0 16.1 7.4 50 5.4 NE 7 9 4 5 1017.6 1017.2 0.0
22/05:30pm 19.2 17.5 8.2 49 5.8 NNE 7 9 4 5 1017.4 - 0.0
22/05:00pm 20.3 17.9 8.6 47 6.2 N 11 15 6 8 1017.2 - 0.0
22/04:30pm 20.5 18.9 10.3 52 5.6 N 9 11 5 6 1017.1 - 0.0
22/04:00pm 21.3 18.8 8.2 43 6.9 NNE 11 13 6 7 1016.9 - 0.0
22/03:30pm 21.7 19.0 7.5 40 7.4 NNE 11 20 6 11 1017.0 - 0.0

Other Formats:

Comma delimited format used in spreadsheet applications
http://www.bom.gov.au/fwo/IDN60801/IDN60801.95722.axf

JavaScript Object Notation format (JSON) in row-major order
http://www.bom.gov.au/fwo/IDN60801/IDN60801.95722.json